Flag for Poland Weather past 2 weeks in Gorzów Wielkopolski, Poland

Now
62 °F

Overcast.


Feels Like: 62 °F
Forecast: 49 / 61 °F
Wind: 1 mph from Southeast

Location: Gorzow Wlkp

Current Time: May 25, 2015 at 7:56:25 PM

Latest Report: May 25, 2015 at 7:00 PM


Visibility: 22 mi

Pressure: 29.83 "Hg

Humidity: 69%

Dew point: 51 °F

Location of Gorzów WielkopolskiLocation

Historic Weather in Gorzów Wielkopolski — Graph

°F

Gorzów Wielkopolski temperature yesterday

Maximum temperature yesterday: 68 °F (at 7:00 PM)
Minimum temperature yesterday: 45 °F (at 6:00 AM)
Average temperature yesterday: 57 °F

Past Weeks' High & Low Weather Summary

 TemperatureHumidityPressure
High78 °F (May 12, 4:00 PM)100% (May 11, 7:00 AM)30.41 "Hg (May 11, 7:00 AM)
Low37 °F (May 11, 6:00 AM)28% (May 24, 4:00 PM)29.61 "Hg (May 19, 6:00 AM)
Average55 °F62%30.04 "Hg
* Reported May 10 6:00 PM — May 25 6:00 PM, Gorzów Wielkopolski, Weather by CustomWeather, © 2015

Note: Actual official high and low records may vary slightly from our data, if they occured in-between our weather recording intervals... More about our weather records

Advertising

Gorzów Wielkopolski weather history for previous 24 hours

 ConditionsComfort  
Time TempWeatherWind HumidityBarometerVisibility
6:00 PM
Mon, May 25
59 °FOvercast.2 mph75%29.83 "Hg25 mi
5:00 PM61 °FSprinkles. Overcast.3 mph68%29.85 "Hg19 mi
4:00 PM65 °FSprinkles. Overcast.3 mph50%29.85 "Hg16 mi
3:00 PM70 °FOvercast.2 mph39%29.83 "Hg25 mi
2:00 PM71 °FScattered clouds.3 mph36%29.85 "Hg25 mi
1:00 PM70 °FPartly sunny.2 mph39%29.88 "Hg25 mi
12:00 PM65 °FOvercast.2 mph42%29.90 "Hg25 mi
11:00 AM64 °FOvercast.2 mph48%29.92 "Hg31 mi
10:00 AM64 °FPartly sunny.2 mph45%29.93 "Hg19 mi
9:00 AM60 °FPartly sunny.1 mph65%29.94 "Hg25 mi
8:00 AM54 °FPartly sunny.2 mph73%29.95 "Hg19 mi
7:00 AM50 °FPartly sunny.2 mph74%29.96 "Hg19 mi
6:00 AM49 °FPassing clouds.1 mph71%29.97 "Hg19 mi
4:00 AM48 °FClear.1 mph70%29.98 "Hg19 mi
3:00 AM49 °FClear.1 mph66%29.99 "Hg25 mi
2:00 AM50 °FClear.1 mph65%30.01 "Hg25 mi
1:00 AM52 °FClear.2 mph59%30.01 "Hg25 mi
12:00 AM52 °FClear.2 mph62%30.03 "Hg25 mi
10:00 PM
Sun, May 24
57 °FClear.2 mph57%30.03 "Hg25 mi
9:00 PM60 °FPassing clouds.2 mph53%30.03 "Hg31 mi
8:00 PM65 °FPassing clouds.2 mph41%30.03 "Hg31 mi
7:00 PM68 °FPassing clouds.1 mph29%30.03 "Hg19 mi
Weather by CustomWeather, © 2015

See weather overviewHow to use our weather pages